Location: Asheville, NC
(35.6000°N, 82.5500°W)
Time: 08:51:04
(UTC-05:00)

Vanguard 1 - Pass Details

Date: 16 February 2018
Orbit: 650 x 3833 km, 34.2° (Epoch: 19 February)

Event Time Altitude Azimuth Distance (km) Brightness Sun altitude
Rises 12:29:16 0° 197° (SSW) 7,339 15.2 42.1°
Reaches altitude 10° 12:37:48 10° 179° (S) 5,670 15.1 42.2°
Maximum altitude 12:45:34 15° 149° (SSE) 4,469 14.4 42.2°
Drops below altitude 10° 12:51:36 10° 118° (ESE) 4,230 13.7 42.2°
Sets 12:56:13 0° 97° (E) 4,662 13.6 42.2°
